{"data":{"norad_id":68383,"intl_designator":"2026-063D","name":"STARLINK-37121","alt_names":[],"object_type":"PAYLOAD","status":"ACTIVE","operator":null,"country":"US","launch_date":"2026-03-26","launch_site_code":"AFWTR","launch_vehicle":null,"mission":null,"orbit_class":"UNKNOWN","rcs_meters":null,"size_class":null,"mass_kg":null,"dimensions":null,"purposes":["comms"],"wikipedia_slug":null,"has_3d_model":false,"image_url":null,"decayed_at":null,"tle_current":{"epoch":"2026-09-19T15:26:05.068608Z","epoch_age_seconds":122101,"freshness":"FRESH","line1":"1 68383U 26063D   26262.64311422  .00020899  00000+0  64784-3 0  9995","line2":"2 68383  97.2873  43.4630 0002325  94.1097 266.0412 15.33446029 27612","mean_motion":15.33446029,"eccentricity":0.0002325,"inclination_deg":97.2873,"raan_deg":43.463,"arg_perigee_deg":94.1097,"mean_anomaly_deg":266.0412,"bstar":0.00064784,"rev_number":2761,"period_min":93.906141642237,"perigee_km":463.94895797106,"apogee_km":467.13126782855,"semimajor_km":6843.6771128998,"source":"CELESTRAK","updated_at":"2026-09-20T09:00:43.892709Z"}}}